Regional Weather Roundup
Issued by NWS

Home | Current Version | Previous Version | Text Only | Print | Product List | Glossary On
Versions: 1 2 3 4 5 6 7 8 9 10 11 12 13 14 15 16 17 18 19 20 21 22 23 24 25 26 27 28 29 30 31 32 33 34 35 36 37 38 39 40 41 42 43 44 45 46 47 48 49 50
000
ASUS44 KMEG 061510
RWRTN
TENNESSEE HOURLY STATE WEATHER ROUNDUP
NATIONAL WEATHER SERVICE MEMPHIS TN
1000 AM CDT FRI MAY 06 2016

TNZ002-004-019-021-049-052-054-088>092-061600-
WEST TENNESSEE

CITY           SKY/WX    TMP DP  RH WIND       PRES   REMARKS
MEMPHIS INTL   SUNNY     66  49  54 N6        30.11R
NWS MEMPHIS      N/A     65 N/A N/A MISG        N/A
JACKSON        SUNNY     65  48  54 N10       30.09S
DYERSBURG      SUNNY     64  46  52 N6        30.09F
UNION CITY     SUNNY     64  48  55 N7        30.08S
LEXINGTON      SUNNY     64  46  52 N8        30.07S
$$

TNZ008-025-027-028-033-062-065-066-061600-
NORTH MIDDLE TENNESSEE

CITY           SKY/WX    TMP DP  RH WIND       PRES   REMARKS
NASHVILLE      MOSUNNY   65  45  48 NW6       30.05S
CLARKSVILLE    SUNNY     64  48  56 N8        30.07R
SMYRNA         SUNNY     61  47  59 VRB5      30.05S
COOKEVILLE     SUNNY     57  48  72 CALM      30.02R
CROSSVILLE     MOSUNNY   58  41  53 N10G22    30.01R
$$

TNZ061-075-076-078-094-096-097-061600-
SOUTH MIDDLE TENNESSEE

CITY           SKY/WX    TMP DP  RH WIND       PRES   REMARKS
TULLAHOMA      SUNNY     57  50  77 N7        30.04S
WINCHESTER     SUNNY     55  46  71 N8        30.04S
MCMINNVILLE    SUNNY     57  48  72 VRB5      30.03S
COLUMBIA       SUNNY     63  54  72 VRB6      30.04S
SHELBYVILLE    SUNNY     63  50  63 NW7       30.05S
$$

TNZ017-018-042-046-047-061600-
NORTHEAST TENNESSEE

CITY           SKY/WX    TMP DP  RH WIND       PRES   REMARKS
TRI CITIES     CLOUDY    53  44  71 SW8       29.92R
$$

TNZ012-013-036-069-073-074-061600-
CENTRAL EAST TENNESSEE

CITY           SKY/WX    TMP DP  RH WIND       PRES   REMARKS
KNOXVILLE      MOSUNNY   60  44  55 NW9       29.96F
OAK RIDGE      SUNNY     62  41  46 VRB3      29.98S
GATLINBURG     MOSUNNY   57  45  62 VRB7      29.96S
MORRISTOWN     SUNNY     57  46  67 N9G17     29.94S
$$

TNZ083-085-099-061600-
SOUTHEAST TENNESSEE

CITY           SKY/WX    TMP DP  RH WIND       PRES   REMARKS
CHATTANOOGA    MOSUNNY   64  45  49 N13G24    29.99R
$$

SKY/WX REPORTED AS FAIR MEANS FEW OR NO CLOUDS BELOW
12 THOUSAND FEET.




USA.gov is the U.S. government's official web portal to all federal, state and local government web resources and services.